Location: Alafon
(8.4500°N, 4.2333°E)
Time: 23:03:56
(UTC+00:00)

Explorer 7 - Pass Details

Date: 31 July 2021
Orbit: 484 x 676 km, 50.3° (Epoch: 22 September)

Event Time Altitude Azimuth Distance (km) Brightness Sun altitude
Rises 11:59:18 0° 354° (N) 2,871 10.6 80.0°
Reaches altitude 10° 12:02:51 10° 23° (NNE) 2,011 10.0 79.8°
Maximum altitude 12:04:54 13° 49° (NE) 1,854 9.8 79.6°
Drops below altitude 10° 12:07:00 10° 76° (ENE) 2,054 9.9 79.4°
Sets 12:10:41 0° 104° (ESE) 2,994 10.5 79.0°
